Theta_e
324 326 326 327 327 327 328 328 328 328 328 328 328 328 328 328 328 328 328 327 327 327 327 327 327 327 326 327 326 326 326 326 327 326 327 327 326 326 324 323 324 324 323 324 325 326 325 325 325 324 323 322 321 321 321 322 322 322 323 322 321 321 320 318 317 317 318 317 316 316 315 314 313 313 312 311 311 310 309 306 303 302 302 301 298
323 325 325 326 327 327 327 328 328 328 327 328 327 328 328 328 328 328 327 327 327 327 327 327 327 327 326 327 326 326 326 326 327 326 325 326 325 324 324 323 324 324 323 323 323 325 325 324 324 323 321 320 319 320 321 322 322 322 322 322 322 322 321 319 317 316 316 316 316 315 315 313 312 312 311 310 310 309 306 304 302 301 301 300 298
322 323 324 325 325 326 327 327 327 327 327 327 327 327 328 327 327 327 327 327 327 327 327 327 327 327 327 327 327 327 327 326 327 326 325 325 324 323 324 323 322 323 322 322 322 324 324 324 324 323 321 320 320 321 321 322 321 321 321 322 322 322 322 320 317 315 315 315 316 315 313 312 311 312 311 309 307 306 304 302 301 301 300 299 297
319 321 322 324 324 325 326 325 326 326 326 327 327 326 327 327 327 327 327 327 327 327 327 326 327 327 327 327 327 326 326 325 325 325 325 324 323 323 323 322 322 323 323 323 323 324 324 323 323 321 320 320 320 321 321 321 320 320 320 321 320 320 320 318 316 315 314 314 315 313 312 312 312 312 310 307 305 304 302 300 300 299 299 298 297
316 318 319 321 322 323 324 324 324 325 325 326 325 325 326 326 326 327 326 327 326 326 327 326 327 327 326 326 326 326 325 324 323 324 323 323 322 321 320 320 321 322 322 322 323 323 323 322 321 319 318 319 319 320 320 320 320 320 319 320 319 319 318 315 314 313 312 312 313 312 312 312 311 309 307 305 303 301 300 299 299 299 298 296 295
313 316 317 319 320 321 322 322 323 324 324 324 325 325 325 325 326 326 326 326 326 326 326 326 326 326 325 324 324 323 323 323 323 322 322 321 321 321 320 319 320 321 321 322 322 322 321 320 319 318 317 318 319 319 319 319 319 319 318 318 318 317 315 314 313 311 310 310 310 310 310 309 307 304 303 301 299 299 299 298 298 298 296 294 293
311 312 314 317 318 319 320 321 322 323 323 324 324 324 325 325 325 325 325 325 325 325 325 324 324 323 322 321 320 320 321 322 322 320 319 319 319 320 319 319 321 321 321 320 320 320 319 319 318 317 318 317 317 317 317 318 317 317 316 316 315 315 313 313 311 310 309 308 308 307 307 305 302 300 300 298 296 297 298 296 295 296 295 293 293
309 310 311 313 315 316 318 320 321 322 322 323 323 323 323 324 324 323 323 323 322 322 322 321 321 320 319 319 318 318 319 320 319 318 318 318 317 317 318 319 320 320 320 319 318 318 318 317 317 318 318 317 316 316 316 315 315 315 315 314 314 313 312 311 309 308 307 306 305 305 303 301 299 298 298 296 294 296 297 295 294 294 293 292 292
310 309 309 310 311 311 313 315 317 319 319 320 320 320 320 320 320 319 319 319 319 319 319 318 317 317 317 317 317 317 318 318 318 317 318 319 318 318 319 319 319 319 318 317 317 317 317 317 317 317 317 317 316 315 315 314 315 315 315 314 312 311 311 309 308 307 305 303 303 302 300 298 298 297 296 296 296 297 297 295 293 293 292 291 291
310 309 309 309 309 309 309 310 311 312 314 314 314 314 314 315 316 316 317 317 317 317 316 315 314 315 315 315 315 315 315 316 316 316 317 317 317 317 317 317 317 316 316 316 316 316 316 316 316 316 316 316 315 315 314 314 314 314 313 312 311 309 308 308 307 305 304 302 302 301 299 298 299 299 298 298 298 297 295 294 293 292 290 289 290
309 309 309 309 309 310 309 309 309 309 310 310 310 311 312 314 315 315 316 315 315 314 313 313 312 312 312 313 313 313 313 313 314 314 314 314 314 315 315 315 315 314 314 314 315 315 315 315 315 315 315 315 315 314 314 313 313 312 312 311 310 309 307 306 306 305 304 302 302 301 299 299 300 300 298 298 297 296 294 293 292 291 289 288 289
309 309 309 309 309 310 309 309 309 309 309 309 310 311 312 313 314 314 314 313 313 312 312 311 311 310 310 310 310 310 309 309 309 310 311 311 312 312 313 313 313 313 313 313 313 313 314 314 314 314 314 314 313 313 313 313 313 312 311 309 309 308 307 306 306 305 304 303 302 301 300 299 299 299 298 298 296 295 294 292 291 290 289 288 288
308 308 309 309 309 309 309 309 309 309 310 310 311 312 313 313 314 313 313 312 312 312 311 311 311 310 309 308 307 307 306 306 308 309 309 310 311 312 312 312 312 312 313 312 312 313 313 313 313 313 312 312 312 312 312 312 311 310 309 308 307 307 306 306 305 304 303 302 301 300 300 299 298 298 297 296 295 294 293 292 291 290 289 288 289
308 308 308 309 309 309 309 309 310 310 311 311 311 312 313 313 313 312 312 312 311 311 311 310 310 309 308 307 306 305 305 305 306 309 310 310 310 311 311 311 311 311 312 312 312 312 313 312 312 312 311 311 311 311 310 310 310 309 308 307 306 305 304 304 303 302 301 301 300 299 298 297 297 296 296 295 294 292 291 290 290 289 288 288 289
307 307 308 308 308 308 308 309 310 310 310 310 310 311 312 312 312 311 311 311 310 310 309 309 308 307 306 305 305 304 304 304 305 307 308 309 309 309 309 310 311 311 311 312 312 312 312 312 311 311 310 309 309 309 308 308 308 307 305 304 303 303 302 301 300 299 298 298 297 296 296 295 294 294 294 293 290 288 287 287 287 287 287 287 287
306 306 307 308 308 308 308 309 309 308 308 307 307 309 310 310 310 310 309 309 308 307 307 307 306 305 304 303 304 304 304 305 306 307 307 308 308 308 309 310 310 310 311 311 310 310 310 310 310 310 309 308 308 308 307 307 306 305 303 302 301 300 300 299 299 297 295 295 294 294 293 292 292 291 290 288 287 286 286 286 286 286 286 285 285
306 306 307 308 309 308 308 308 308 307 306 305 307 309 309 309 309 308 307 307 307 306 306 305 304 304 303 303 305 305 305 307 308 307 307 308 308 308 308 309 309 310 310 310 309 309 309 309 309 309 308 308 308 307 306 305 304 303 302 301 300 299 298 298 297 296 294 293 292 292 291 290 289 288 287 287 286 287 286 286 286 285 285 284 284
305 305 307 309 309 309 308 308 307 306 306 307 309 309 309 308 308 307 306 306 306 305 304 303 302 303 304 304 305 306 306 308 308 308 308 308 308 308 308 308 308 309 309 308 308 308 307 307 307 307 307 306 306 305 304 303 302 302 301 301 301 300 299 297 296 295 293 291 290 289 289 288 288 287 287 287 287 287 286 286 286 285 285 284 284
306 307 308 309 309 308 307 307 307 306 307 309 309 309 308 307 306 306 305 304 304 303 302 302 302 303 304 305 306 306 307 308 308 309 309 309 309 309 309 308 308 308 308 307 306 306 306 306 306 306 305 304 304 303 303 302 301 301 301 302 302 301 298 296 295 293 291 290 289 288 287 287 287 287 286 286 286 286 286 285 285 285 285 284 284
307 308 308 308 307 306 306 306 306 307 308 309 308 306 305 304 303 303 302 301 301 300 301 301 302 303 304 305 306 306 306 307 308 309 310 310 310 310 309 308 308 308 307 307 307 307 307 306 305 305 304 303 302 302 301 301 300 300 301 301 300 298 296 294 292 290 289 288 287 287 286 286 286 285 285 285 285 285 285 285 285 285 284 284 284
307 306 306 306 306 306 305 305 305 306 307 306 304 303 303 302 301 301 300 299 299 299 300 301 302 304 304 305 306 306 306 306 307 308 309 309 309 309 309 308 308 308 308 307 307 307 307 305 305 304 303 303 302 301 300 299 299 299 300 299 297 295 294 292 290 289 288 287 286 286 285 285 285 284 284 284 284 284 284 284 284 284 284 284 284
305 304 304 304 304 305 305 304 304 305 304 303 302 302 301 300 300 299 298 298 299 299 300 301 302 303 304 305 306 306 306 307 307 308 309 309 309 309 308 308 309 308 308 307 306 306 305 305 304 303 302 302 301 300 299 298 298 298 298 295 293 292 291 289 288 288 287 286 286 285 285 285 285 284 284 284 283 283 283 283 283 283 283 283 283
304 303 304 303 303 304 304 304 304 303 303 302 301 300 299 299 298 297 297 298 298 299 300 301 302 302 303 304 305 306 306 307 308 308 308 308 308 307 307 308 307 307 307 307 306 305 304 304 303 301 301 300 300 299 298 297 297 297 295 293 291 290 289 288 287 287 286 286 285 285 285 284 284 284 284 284 283 283 283 283 282 282 282 282 282
303 302 303 303 303 303 303 303 303 302 302 301 300 299 298 297 297 296 297 297 298 298 299 300 300 300 300 301 303 305 306 307 307 307 307 307 307 306 306 306 306 306 306 305 305 304 304 303 302 300 300 299 299 298 296 296 296 295 293 291 289 288 288 287 287 286 286 286 285 285 285 285 284 284 284 284 283 283 283 282 282 281 281 281 281
302 302 302 302 302 303 302 302 302 301 302 301 300 299 298 296 296 296 296 297 297 298 298 299 299 299 299 299 300 302 304 305 306 306 306 305 305 305 305 305 304 304 304 304 303 303 302 301 300 299 298 298 297 297 296 295 294 293 291 289 288 287 287 287 286 286 286 286 285 285 285 284 284 283 283 283 282 282 282 281 281 281 280 280 280
301 301 301 301 301 301 301 301 301 301 301 300 299 299 298 297 296 296 296 296 297 298 298 298 298 298 298 298 299 300 301 303 305 305 305 304 304 304 304 304 303 303 303 302 301 300 299 298 298 297 296 296 296 295 295 293 292 291 289 288 287 286 286 286 287 286 286 286 285 285 284 283 282 281 281 281 281 281 281 280 280 280 280 279 279
301 301 301 301 300 300 300 300 299 299 299 298 298 297 297 297 296 296 296 296 296 297 298 298 297 297 297 298 298 298 299 301 303 303 303 302 302 302 302 301 301 300 299 299 298 297 297 296 295 295 295 294 294 293 292 291 289 288 287 286 286 286 286 286 286 286 285 284 284 283 282 281 281 280 280 280 280 280 280 279 279 279 279 278 278
301 301 301 300 299 299 299 299 299 298 298 297 297 296 296 296 296 296 296 297 297 297 298 298 297 297 297 298 298 297 297 299 301 302 302 301 301 300 300 299 299 298 297 296 296 295 295 294 294 293 293 292 291 290 289 288 287 286 285 285 285 285 285 285 284 284 284 283 282 281 281 280 280 280 279 279 279 279 278 278 278 278 278 277 277
300 300 300 299 299 299 299 298 298 298 297 296 296 297 297 296 296 296 297 297 297 298 298 298 298 298 298 298 297 296 296 297 299 301 301 301 301 301 300 299 298 297 297 296 295 294 293 292 292 291 291 290 289 287 286 286 285 285 285 284 284 284 284 284 284 283 283 282 281 280 279 279 279 279 278 278 278 278 277 277 277 277 277 277 276
299 299 299 298 298 298 298 297 297 297 296 296 295 296 296 296 296 296 296 296 297 297 298 298 298 298 298 298 298 297 297 297 298 299 300 301 302 301 301 300 298 297 296 296 295 293 292 291 290 290 289 288 287 286 285 285 285 284 284 284 284 284 284 284 283 283 282 281 280 280 279 279 278 278 278 277 277 277 277 277 277 277 277 276 276
297 297 298 298 298 298 297 297 296 296 296 296 295 295 295 295 295 296 296 296 296 297 297 298 298 298 298 298 298 298 298 297 297 298 299 300 301 300 300 299 297 296 295 294 293 292 291 290 289 288 287 287 286 285 285 284 284 284 284 284 284 283 283 283 282 282 282 281 281 280 280 279 279 278 278 277 277 277 278 277 277 277 277 277 276
297 297 297 297 297 297 296 296 296 295 295 295 295 294 294 294 294 295 295 296 296 296 297 297 297 298 298 298 298 297 297 297 297 297 298 299 299 298 297 296 295 294 294 293 291 290 289 289 287 286 286 286 285 285 284 284 284 284 283 283 283 283 282 282 282 281 281 281 281 281 280 280 280 279 279 279 279 279 278 278 278 278 277 277 276
297 297 297 297 296 296 296 295 295 295 294 294 294 294 294 294 294 294 294 294 295 296 296 297 297 297 297 297 297 297 297 297 297 297 298 298 297 296 295 295 294 292 291 291 290 288 288 287 286 286 285 285 285 284 284 284 283 283 283 283 282 282 282 282 281 281 281 281 281 280 280 280 280 280 279 279 279 279 279 278 278 278 277 277 276
298 298 297 297 296 296 295 295 295 295 294 294 294 294 294 294 294 294 293 293 293 294 295 296 296 297 297 297 297 297 297 297 296 297 297 296 295 294 293 292 291 290 289 289 289 287 286 286 286 285 285 284 284 284 283 283 283 283 282 282 282 282 282 281 281 281 281 280 280 280 280 280 280 279 279 279 279 279 278 278 278 277 277 276 276
297 297 297 296 296 296 296 296 295 294 294 294 294 294 294 294 294 294 293 292 292 292 293 294 295 296 297 297 297 296 297 296 296 296 296 295 293 292 291 289 287 287 287 287 287 287 286 286 285 285 284 284 283 283 283 282 282 282 282 282 281 281 281 281 281 281 280 280 280 280 280 280 279 279 279 279 278 278 278 277 277 277 277 276 276
296 296 296 296 296 295 295 295 295 294 294 294 294 294 294 294 294 294 293 292 292 292 291 291 292 294 294 296 296 296 295 295 295 295 294 293 291 290 288 287 286 285 285 285 286 286 286 285 285 284 284 283 283 282 282 282 282 282 282 281 281 281 281 280 280 280 280 280 279 279 279 279 278 278 278 278 277 277 277 277 277 277 276 276 276
294 295 295 295 295 294 294 294 294 294 294 294 294 294 293 293 293 293 292 292 291 291 290 289 290 291 291 292 294 294 294 294 294 293 292 290 289 288 287 286 285 284 284 285 285 285 285 284 284 283 283 282 282 282 282 281 281 281 281 281 281 280 280 280 280 279 279 279 278 278 278 277 277 277 277 276 276 276 276 276 276 276 276 275 275
293 293 293 293 293 293 293 293 293 293 293 293 293 293 293 293 293 292 292 291 290 289 288 287 288 288 288 288 290 291 291 291 290 289 288 288 287 287 286 286 285 284 284 285 285 284 284 283 283 282 282 282 281 281 281 281 281 281 280 280 280 280 279 279 279 278 278 278 277 277 277 277 276 276 276 276 276 276 275 275 275 275 275 275 274
291 291 291 291 291 291 292 292 292 292 292 292 292 292 292 292 291 291 290 290 289 287 286 286 286 286 287 287 287 287 287 287 286 285 286 286 285 285 285 285 285 284 284 284 284 283 283 282 282 282 281 281 281 281 281 281 280 280 279 279 279 279 278 278 278 277 277 277 276 276 276 276 276 276 275 275 275 274 274 274 274 274 274 274 274
289 289 289 290 290 290 290 290 290 291 291 291 291 291 291 290 290 289 289 288 287 286 285 285 285 285 286 286 286 286 285 284 283 283 284 284 284 284 284 284 284 284 284 283 283 282 282 281 281 281 281 281 281 281 280 280 279 279 279 278 278 278 278 277 277 276 276 276 275 275 275 275 275 274 274 274 274 274 274 274 274 274 273 273 273
286 286 287 288 288 289 289 289 289 289 289 290 290 290 290 289 289 288 288 287 286 285 284 284 284 284 285 285 285 285 285 283 282 283 283 283 283 283 283 284 284 283 283 282 282 282 281 281 281 281 280 280 280 279 279 278 278 278 278 277 277 276 276 276 275 275 274 274 274 274 273 273 273 273 273 273 273 273 273 273 273 273 273 273 273
284 285 286 286 286 287 287 288 288 288 288 288 289 288 288 288 288 287 286 285 284 284 283 282 282 283 284 284 284 284 284 283 282 281 281 281 282 282 282 283 283 283 283 282 281 281 281 280 280 280 279 279 278 278 277 277 277 276 276 276 275 275 274 274 274 273 273 273 272 272 272 272 272 272 272 272 272 272 271 271 271 271 271 271 271
284 285 285 285 286 286 286 287 287 287 287 287 287 287 287 287 286 286 285 284 283 283 282 281 281 281 282 282 282 282 282 281 280 280 280 280 280 281 281 281 282 282 281 281 281 280 280 279 279 278 277 277 276 276 276 276 276 275 275 275 274 274 273 273 272 272 271 271 271 270 270 270 270 270 270 270 270 269 269 270 270 270 270 271 271
284 284 285 285 285 285 285 286 286 286 286 286 286 286 286 286 285 284 283 282 282 281 280 280 279 280 279 279 280 280 280 279 279 279 279 279 280 280 280 280 280 280 280 279 279 278 278 278 277 276 275 275 274 275 275 275 275 275 275 274 273 273 272 271 271 270 270 270 269 269 269 269 269 268 268 268 268 267 267 268 268 269 269 270 269
284 284 284 284 284 284 284 284 285 285 285 284 284 284 284 284 283 283 282 281 280 279 279 278 278 278 278 278 279 279 278 278 278 278 278 279 279 278 278 278 278 278 278 277 277 276 276 276 275 275 274 274 274 275 275 275 275 274 274 273 272 271 271 270 269 269 268 268 268 268 267 267 267 267 266 266 266 266 266 266 266 267 268 268 268
283 283 283 283 283 283 283 283 283 283 283 283 282 282 282 282 281 281 280 279 279 278 277 277 277 277 277 277 277 277 277 277 277 277 277 277 277 277 277 277 276 276 276 276 275 275 274 274 274 274 274 275 274 274 274 274 273 273 272 271 271 270 269 269 268 268 267 267 267 266 266 266 266 265 265 264 264 264 264 264 265 265 266 266 267
282 283 283 283 282 282 282 281 282 281 281 281 281 280 280 280 279 279 278 278 277 277 276 276 276 276 276 276 276 276 276 276 276 276 276 276 276 276 275 275 275 275 274 274 273 273 273 273 274 274 275 275 274 274 273 272 272 271 271 270 270 269 268 268 267 267 266 266 266 266 265 265 265 264 264 263 263 263 264 264 263 264 264 264 265
282 282 282 282 281 281 280 280 280 280 279 279 279 278 278 278 278 277 277 276 276 275 275 275 275 274 275 275 275 274 275 275 275 275 275 275 275 274 274 274 274 274 273 272 272 272 273 273 274 274 274 274 273 272 272 271 271 270 269 269 269 268 267 267 267 266 266 266 266 265 265 265 264 264 263 262 262 263 263 263 263 263 263 264 264
281 280 281 280 280 279 279 279 278 278 278 278 277 277 277 277 276 276 275 275 275 275 274 274 274 274 274 274 274 275 275 275 275 275 274 274 273 273 273 273 273 272 272 272 272 273 273 274 274 273 273 273 272 271 271 270 270 269 268 268 267 267 267 267 267 266 266 266 266 265 265 264 264 263 262 262 262 262 262 262 262 262 263 263 263
280 280 279 279 279 278 278 278 278 278 277 277 276 276 276 275 275 275 274 274 274 274 274 274 274 275 275 275 275 275 275 275 274 274 273 273 273 272 272 272 272 272 272 272 273 273 273 273 273 272 272 271 270 270 270 269 269 268 267 267 267 267 267 267 266 266 266 265 265 265 265 265 264 263 262 262 261 261 261 261 262 262 263 263 263
278 278 278 278 278 278 277 277 277 277 276 276 276 275 275 275 274 274 274 274 274 274 274 275 275 275 276 276 275 275 275 274 274 273 273 273 272 272 272 271 272 272 272 272 272 272 272 272 271 271 270 270 269 269 269 268 268 267 266 266 266 267 266 266 266 265 265 265 265 265 265 264 264 263 262 262 261 261 261 261 261 262 262 263 263
Wind_Speed
31 33 34 35 37 37 37 37 37 37 37 36 36 37 36 35 34 34 33 32 32 31 31 30 28 28 27 27 27 27 27 27 26 27 28 30 29 27 26 26 26 26 26 29 30 31 31 30 27 23 20 21 23 24 26 27 27 29 29 28 28 28 29 26 17 14 21 25 23 22 23 22 23 25 26 27 29 31 33 36 38 38 39 38 37
31 33 34 35 36 37 37 37 37 36 36 35 36 36 35 35 34 33 33 32 31 30 30 29 27 27 27 27 27 27 27 26 25 25 26 27 27 26 25 24 25 27 26 26 27 25 24 24 22 20 19 20 22 22 24 26 28 29 29 29 30 31 31 30 24 16 18 23 23 22 23 23 22 24 25 26 27 29 31 33 34 36 38 38 38
31 32 32 34 35 35 36 36 36 35 35 35 36 35 35 34 32 32 32 32 31 30 29 27 26 26 26 27 27 26 26 25 25 25 25 26 26 27 26 24 25 27 27 26 25 24 23 23 23 21 20 21 21 21 22 25 27 28 29 29 30 31 32 32 28 21 19 23 25 23 21 21 20 21 23 23 24 26 28 30 31 33 36 37 38
29 30 31 32 33 33 35 35 34 34 35 35 35 34 33 32 31 32 31 30 29 28 27 26 26 26 26 26 25 24 24 23 24 24 24 25 25 24 23 24 25 26 26 26 25 25 24 22 21 21 20 20 20 19 20 23 25 25 26 27 27 29 31 30 29 26 22 21 22 20 18 17 18 20 21 21 22 24 26 27 29 31 34 36 38
27 28 29 31 31 32 33 32 33 34 35 35 34 32 31 31 31 31 30 29 28 27 26 25 25 25 25 24 23 23 23 22 23 23 22 22 23 23 23 24 24 24 25 25 24 23 22 20 20 20 18 18 19 20 21 21 22 23 23 24 25 26 27 26 26 25 23 21 20 18 17 18 19 20 20 19 20 22 24 25 27 29 32 34 36
25 26 28 29 30 31 31 31 33 34 33 33 31 31 30 30 30 30 29 28 26 25 24 24 24 24 23 23 23 22 22 21 21 21 21 21 22 23 24 25 25 25 24 23 20 20 19 19 18 17 17 18 19 20 20 19 20 21 21 22 22 22 23 23 23 22 21 22 21 19 18 19 17 16 17 17 18 19 21 23 26 28 31 32 34
23 25 27 28 29 30 30 31 32 32 31 30 30 30 29 29 29 28 27 26 25 24 24 24 23 23 22 22 21 21 20 20 21 21 21 22 23 23 24 24 24 23 21 19 18 19 19 18 16 16 16 16 17 17 17 17 18 18 18 18 18 18 19 20 20 19 19 20 20 18 17 16 15 15 16 15 15 18 20 21 24 27 29 31 33
23 25 26 28 29 30 30 30 30 29 29 29 29 29 28 28 27 26 25 25 25 24 24 23 22 21 21 21 20 20 19 21 22 22 22 23 23 23 23 22 22 22 19 18 18 18 18 16 15 15 15 15 14 14 14 14 15 15 15 15 15 15 16 16 17 17 17 17 17 17 14 13 14 14 14 14 14 18 21 21 23 25 26 28 31
24 25 26 28 29 28 28 28 29 29 29 29 29 29 28 27 26 25 25 25 24 24 23 22 21 21 21 21 21 21 21 23 23 22 22 23 22 23 23 22 22 21 20 19 19 18 16 16 17 17 16 15 14 13 12 12 13 13 12 13 13 13 13 13 14 15 14 14 15 15 13 13 15 15 16 17 17 19 19 19 22 24 23 24 27
25 26 27 29 28 26 26 28 29 29 29 29 28 28 27 26 25 25 25 25 24 24 23 23 23 23 24 23 23 24 25 25 25 24 25 25 24 25 25 23 21 20 20 21 20 18 17 17 18 17 15 13 11 10 10 9 9 10 10 12 12 12 11 11 13 13 13 13 15 14 12 15 17 17 18 18 19 19 18 17 19 20 19 19 22
26 27 29 28 26 26 27 28 28 28 28 28 27 27 27 26 25 25 25 25 25 24 24 24 25 25 26 26 27 28 28 28 27 27 27 26 26 27 27 26 24 24 24 23 20 19 18 16 15 13 13 12 10 8 8 8 8 8 9 9 10 10 9 10 11 12 12 13 14 14 14 15 17 16 17 17 18 19 20 19 18 17 16 14 15
27 28 28 26 25 27 28 28 27 27 28 28 28 27 26 26 26 26 27 26 25 25 25 26 26 25 25 26 27 27 28 27 25 25 25 24 24 25 25 25 26 26 24 21 19 19 17 14 12 11 11 11 9 8 8 7 7 8 7 7 8 8 8 9 10 11 12 13 14 15 15 15 16 16 16 16 17 17 17 18 18 18 17 16 16
28 28 27 26 27 28 28 27 28 28 28 28 28 27 26 27 28 28 28 27 26 27 27 27 27 26 26 26 26 26 25 23 21 20 20 20 20 21 21 21 20 20 18 17 16 16 14 13 12 11 11 10 10 9 8 7 7 7 6 6 6 7 7 8 9 10 11 12 14 16 16 15 16 16 14 14 14 14 15 17 19 20 19 20 22
28 28 28 28 28 28 28 29 29 29 29 28 28 28 29 29 30 30 28 28 28 28 28 27 27 26 26 25 24 24 23 23 23 23 22 22 22 21 21 20 18 17 16 15 14 13 13 13 13 12 11 11 11 10 9 9 8 8 7 6 6 7 6 7 7 8 10 11 13 15 16 16 16 16 15 14 15 14 15 16 18 19 19 21 24
28 29 29 29 30 30 30 30 30 29 29 29 29 30 30 31 31 31 30 29 29 29 28 27 27 25 24 22 21 20 19 19 21 24 24 24 23 23 22 21 20 19 17 15 14 14 13 13 13 12 11 11 11 10 9 9 8 7 7 6 6 6 5 5 6 7 8 10 11 13 14 14 15 15 14 14 13 12 12 13 15 16 17 18 19
28 30 31 32 33 33 33 32 32 31 30 29 30 31 32 33 33 32 30 29 29 28 27 27 26 25 23 21 21 20 18 17 19 21 22 22 22 21 21 21 20 19 18 17 17 17 16 15 13 12 11 11 11 11 10 9 8 7 6 6 5 4 4 4 5 6 7 8 9 10 11 11 11 11 10 10 10 10 10 11 13 13 13 13 15
29 31 33 35 36 36 36 35 34 33 31 31 33 35 35 35 34 32 31 30 30 30 29 28 27 25 23 23 24 22 20 19 20 22 22 22 22 22 22 21 20 19 19 18 18 17 16 16 14 13 12 12 12 11 10 9 8 7 7 6 5 3 3 4 5 6 6 6 6 7 7 8 8 9 9 10 10 10 10 11 12 12 11 10 10
31 33 35 39 40 39 38 37 36 35 34 35 37 37 36 36 35 33 32 32 32 31 30 28 27 25 24 25 25 24 23 22 22 22 22 23 23 23 22 21 21 20 19 18 17 16 16 15 14 13 12 12 12 11 10 9 8 7 7 6 5 4 4 5 5 5 5 4 4 4 5 6 7 8 9 9 10 10 10 11 11 10 11 11 9
34 35 39 41 41 39 38 38 37 36 37 39 39 38 37 35 34 33 33 32 32 30 29 28 27 26 26 26 25 25 24 24 24 24 23 24 24 23 23 22 22 21 20 18 17 16 16 15 14 13 13 12 11 10 9 8 8 8 7 7 6 5 5 5 4 4 4 3 3 3 4 5 5 6 7 8 8 8 8 10 11 11 11 11 10
38 38 39 39 37 36 36 37 38 39 39 40 38 36 34 33 31 31 31 31 29 28 28 28 28 28 27 27 27 27 26 26 26 25 24 25 24 23 23 23 22 21 19 19 17 16 16 15 14 14 13 12 10 9 9 8 8 8 8 7 6 5 5 4 3 3 3 3 3 3 3 4 4 5 5 6 7 7 7 9 11 12 12 12 11
38 35 34 34 34 35 35 36 38 39 39 37 34 32 32 31 30 29 29 28 28 27 27 28 28 28 28 28 28 28 27 26 26 25 24 24 23 23 24 24 22 21 20 19 18 18 17 17 15 14 13 11 10 10 9 9 9 8 7 6 6 6 5 4 3 3 3 2 3 3 3 4 4 5 5 6 6 7 8 8 10 11 12 12 12
35 31 29 30 32 33 35 35 36 36 34 32 31 30 30 29 28 28 27 27 27 27 27 27 28 27 27 28 29 29 28 27 27 26 25 24 25 26 26 25 23 22 21 20 20 19 18 16 15 14 13 12 11 11 11 10 9 8 7 6 6 6 6 5 4 3 3 2 3 3 3 4 4 5 5 5 6 6 7 8 9 9 11 11 12
32 30 29 29 30 31 33 34 34 33 32 31 29 28 27 27 27 26 26 27 27 27 27 27 27 26 27 28 30 30 29 28 28 27 26 25 26 26 26 24 23 23 22 22 21 19 16 15 14 14 13 12 11 12 11 11 10 9 8 8 7 7 6 5 4 3 3 2 2 3 4 4 5 5 5 5 5 6 6 7 7 8 8 9 10
30 28 28 29 30 31 32 32 32 32 31 30 29 27 26 25 25 25 26 27 26 26 26 27 26 26 26 28 29 31 30 29 29 28 26 26 27 26 24 23 22 22 22 21 19 17 15 14 14 13 13 12 12 12 11 10 10 9 9 9 8 8 7 5 4 3 3 3 3 3 4 5 5 6 6 6 7 7 7 7 7 7 7 8 9
27 27 27 28 30 30 30 30 29 30 30 30 30 29 27 26 25 26 27 27 27 26 26 27 27 26 26 27 29 31 32 31 30 30 29 29 28 27 25 24 23 22 21 20 18 16 15 14 14 13 13 13 13 12 11 10 10 10 10 10 9 8 7 5 4 4 3 3 3 4 4 5 5 6 7 7 8 8 9 9 9 9 9 9 9
24 25 27 28 28 27 27 27 28 28 29 30 31 31 30 29 28 27 27 28 28 27 26 26 26 26 26 28 30 31 32 32 32 32 31 31 30 28 26 25 25 23 22 20 18 17 15 14 14 14 13 13 12 12 11 11 11 11 11 10 9 7 6 5 4 4 3 3 3 3 4 4 5 5 6 7 8 8 9 9 9 10 10 10 10
23 25 27 27 26 25 26 27 27 27 28 29 30 30 30 30 30 29 29 29 29 28 27 27 27 27 28 28 28 29 31 32 33 33 34 33 32 30 29 27 26 24 23 21 19 17 16 15 15 14 13 12 12 12 12 12 12 12 11 10 9 7 6 5 5 4 4 4 4 3 3 3 4 5 6 7 7 8 9 9 9 9 10 10 11
23 25 26 25 24 25 26 27 28 28 29 30 30 31 31 32 33 34 35 35 33 32 31 31 31 31 29 28 26 25 28 32 36 38 38 37 35 33 31 29 27 26 25 22 19 17 17 16 16 15 14 14 13 13 13 12 12 11 10 9 8 8 7 6 6 6 6 6 5 3 2 1 2 4 5 6 6 7 8 8 9 9 9 9 10
22 23 23 23 24 25 26 28 29 28 29 30 31 33 33 34 35 36 36 36 35 33 31 30 31 30 28 27 27 26 28 33 39 40 38 37 36 34 32 31 29 27 24 22 20 19 18 17 17 16 16 16 15 15 14 13 12 11 10 9 8 7 6 6 6 6 6 5 4 3 1 0 1 2 4 5 6 6 7 8 8 8 9 9 9
20 21 21 22 24 26 26 27 28 28 27 27 28 29 31 32 34 34 32 32 34 33 31 29 29 29 29 30 30 30 29 30 33 35 35 35 34 32 31 30 27 24 22 21 21 20 20 20 19 19 19 18 17 16 15 13 12 11 10 9 8 7 6 6 5 5 4 3 2 2 1 0 1 2 3 5 6 6 7 7 7 8 8 9 9
19 20 22 24 25 26 26 26 26 26 26 26 26 25 26 28 31 34 33 32 33 34 34 32 29 29 30 30 30 29 28 26 26 29 32 33 32 30 29 27 25 24 23 23 22 22 22 22 21 21 20 19 17 16 15 14 13 12 11 10 8 7 6 5 4 3 2 1 1 1 2 2 2 3 3 4 6 7 7 8 8 8 9 9 10
20 21 22 22 23 23 24 24 24 24 25 25 25 24 23 22 24 28 32 33 32 33 33 33 31 30 29 29 29 28 26 25 25 25 29 31 31 29 27 25 23 23 23 24 23 23 23 23 22 21 20 18 17 16 15 14 13 12 12 10 9 8 6 5 4 3 2 2 2 2 3 4 4 4 5 5 6 7 8 8 9 9 10 10 11
21 22 21 20 20 21 22 23 24 25 25 24 24 23 23 20 19 20 23 26 28 30 30 31 31 30 28 28 28 27 27 26 25 25 26 29 30 28 25 23 23 24 25 26 25 24 23 23 22 22 20 19 18 17 15 14 13 12 11 10 9 8 6 4 3 3 2 1 2 2 3 3 4 4 5 6 7 8 8 9 10 10 10 11 11
21 23 22 20 20 21 22 24 25 25 24 24 23 23 23 22 19 17 17 19 21 24 26 29 30 30 29 28 27 27 27 27 26 25 27 29 29 27 24 23 22 24 26 27 25 24 23 22 22 21 20 19 18 17 15 14 13 11 10 10 9 7 6 4 3 2 2 1 1 1 2 3 4 4 6 6 8 9 10 10 11 10 10 11 12
21 22 22 22 21 22 23 24 24 24 24 24 24 23 22 21 20 18 18 18 19 19 21 23 26 28 29 28 27 26 27 27 27 27 28 29 29 28 26 25 24 23 24 24 23 23 23 23 22 22 21 19 18 16 15 14 13 11 10 9 8 7 6 4 4 3 2 2 2 2 3 3 4 5 7 8 9 10 11 11 11 11 12 12 13
20 22 23 23 23 24 24 23 23 24 24 24 24 23 21 20 20 19 19 18 18 17 17 18 20 22 25 27 27 27 27 27 27 28 28 30 31 31 31 28 25 23 22 21 20 21 22 22 22 21 19 18 17 16 15 14 13 11 10 9 8 7 6 5 5 4 3 3 3 3 4 5 5 5 6 8 9 9 10 12 12 12 12 13 13
20 22 23 23 24 23 23 22 23 24 24 23 22 21 20 20 20 20 18 18 18 18 17 17 18 18 19 21 24 26 25 25 25 26 27 30 32 33 31 28 25 23 22 21 21 22 22 21 20 19 18 18 17 16 15 14 13 11 10 9 8 7 6 5 5 4 3 4 4 4 5 5 5 6 7 8 9 9 10 11 13 13 13 12 12
20 21 22 22 21 21 22 22 21 21 21 21 21 20 20 20 20 20 19 18 18 18 18 18 19 20 19 21 23 25 25 24 24 25 28 30 32 31 29 27 26 24 23 23 22 23 22 20 19 19 18 17 17 16 15 14 13 11 10 9 8 7 6 5 5 4 4 4 5 5 6 6 6 6 7 8 8 9 9 11 12 12 12 11 11
20 20 21 20 19 20 20 20 19 19 19 19 20 20 19 19 18 19 18 18 18 18 18 19 19 20 22 24 25 27 27 26 26 26 27 29 29 29 27 27 26 25 24 24 23 22 22 21 20 19 19 18 17 16 15 14 13 11 11 10 8 7 6 6 5 5 5 5 5 5 5 5 5 5 6 7 8 9 9 10 11 11 11 13 14
18 18 19 18 18 19 19 18 18 18 19 19 19 19 19 19 18 18 18 17 17 17 18 19 19 20 23 27 29 29 27 25 24 25 25 25 26 26 26 26 26 25 25 24 23 23 23 22 21 20 19 18 17 16 14 13 12 11 10 8 7 7 7 6 6 6 6 6 6 6 6 6 6 6 7 7 7 8 9 10 10 11 12 13 14
17 16 16 16 17 17 17 18 18 18 19 19 19 19 19 19 19 19 18 18 17 18 18 18 19 21 25 28 29 29 28 25 24 25 25 25 24 24 25 26 26 26 26 26 25 24 24 23 22 21 19 18 16 15 14 13 11 10 8 7 6 6 6 6 7 7 7 7 7 7 7 7 6 6 6 5 5 6 8 9 10 11 11 12 13
16 15 15 14 15 16 17 18 18 18 18 19 19 19 19 19 19 19 19 19 19 19 19 18 19 22 25 27 27 27 26 25 26 26 25 24 24 24 24 25 26 26 27 26 25 25 24 23 22 20 18 17 15 14 12 10 9 7 6 5 5 5 6 7 7 7 8 8 8 8 8 8 8 8 8 8 8 9 9 10 11 11 12 12 12
16 15 15 14 15 16 17 17 17 18 18 19 19 19 19 19 20 20 20 19 20 21 21 20 21 22 23 23 23 23 24 24 25 25 24 24 24 24 24 25 25 25 25 25 24 23 22 21 20 17 15 14 12 11 9 7 5 4 4 4 5 5 6 7 8 8 8 8 8 8 8 8 8 9 9 10 10 9 9 9 9 10 10 11 11
16 16 15 15 15 16 17 17 17 17 18 18 18 18 19 19 19 20 20 20 20 21 22 23 24 24 23 21 22 23 23 24 24 25 25 25 25 25 25 25 25 25 24 23 21 20 19 17 16 15 13 11 9 7 5 4 3 3 4 4 5 6 7 7 7 8 8 8 7 8 8 8 8 9 9 8 8 7 7 8 8 9 9 10 10
17 17 16 16 16 16 16 16 16 16 16 16 16 17 18 19 20 20 21 21 21 22 22 24 26 26 26 24 24 24 25 25 26 26 27 27 26 26 26 25 25 24 23 21 19 17 15 14 13 12 10 8 6 4 3 3 3 4 4 5 5 6 6 6 7 7 7 7 7 7 7 7 7 7 6 6 6 6 7 8 8 9 10 10 10
18 18 18 17 17 17 16 16 16 16 16 16 16 16 17 18 19 20 21 22 23 23 24 25 26 26 26 27 27 27 27 28 28 28 28 28 27 27 25 24 23 21 20 18 17 15 13 12 10 8 6 5 3 2 3 3 4 4 5 4 4 5 5 6 7 7 7 7 7 7 7 7 6 6 6 6 6 6 7 7 8 8 9 9 10
19 19 19 19 18 18 18 18 17 17 17 17 17 17 17 17 18 19 20 22 23 24 24 25 25 25 26 27 27 28 28 29 29 29 29 28 27 26 24 22 21 19 18 17 15 13 11 9 7 5 4 3 3 3 4 4 4 4 4 4 4 5 5 6 6 6 6 6 7 7 7 7 7 7 6 5 5 6 7 8 9 9 9 9 9
20 19 19 19 18 18 18 18 19 18 18 17 17 18 18 19 19 20 21 23 24 25 25 25 25 25 26 26 27 27 28 28 29 29 28 26 25 23 22 20 19 18 16 15 13 11 9 7 5 4 3 4 4 4 4 4 4 4 4 4 4 5 5 6 6 6 6 6 6 6 6 7 7 6 6 5 6 7 8 8 9 8 8 8 8
19 19 18 18 18 18 19 20 20 20 20 20 20 19 20 21 21 22 23 25 25 25 26 27 27 28 28 28 28 28 29 29 28 27 26 24 23 21 19 18 17 16 14 12 10 8 7 5 5 4 4 4 5 5 5 4 4 4 4 4 5 5 6 6 5 5 5 6 6 6 6 6 6 6 6 6 6 7 8 8 8 8 7 8 8
18 17 18 18 18 18 18 19 19 20 21 22 22 21 21 22 22 23 25 26 26 27 28 29 31 31 31 31 31 30 30 29 28 27 25 24 22 20 18 17 15 13 11 9 8 7 6 5 5 5 5 5 5 5 5 5 5 5 5 5 6 6 6 5 4 4 5 5 6 5 5 6 7 7 7 7 7 8 8 8 7 7 7 8 9
16 16 16 16 17 17 18 18 18 19 21 22 22 22 22 22 23 24 27 29 30 31 32 32 33 33 32 32 31 30 29 28 27 25 23 22 20 18 17 15 13 11 9 8 7 6 6 6 6 6 6 6 6 6 5 6 5 5 5 6 6 6 5 4 4 5 6 6 6 5 5 5 5 6 5 5 6 7 7 7 7 7 8 9 9
Wind_Direction
223 225 226 227 228 229 230 231 233 234 235 235 236 239 241 242 244 246 247 248 249 249 250 251 251 252 252 253 252 252 252 251 252 253 252 251 252 254 255 255 255 257 261 262 262 260 257 253 250 252 261 267 269 272 272 272 269 261 254 252 252 254 251 246 248 263 264 263 264 265 264 263 260 260 260 260 260 259 258 255 251 248 248 247 245
225 227 228 228 229 230 231 232 234 234 234 235 237 240 242 243 244 244 246 248 249 249 251 251 252 253 253 253 253 253 252 252 253 253 253 254 253 253 253 255 258 259 261 264 264 261 256 252 253 260 268 270 272 276 276 275 268 257 252 253 255 258 257 250 247 253 262 265 265 265 264 262 260 262 263 264 265 264 261 258 254 250 249 247 245
228 228 228 229 230 231 232 233 233 234 235 236 238 240 241 242 242 244 246 248 248 249 250 251 251 252 252 253 252 253 253 253 252 251 252 253 254 254 253 253 258 262 264 265 266 264 260 257 260 267 275 277 278 280 280 277 267 255 252 254 256 260 262 256 249 246 252 261 265 266 265 264 266 269 271 270 268 265 263 260 256 253 250 248 246
228 228 228 230 231 231 232 232 232 233 234 236 238 239 240 241 242 244 246 246 246 247 248 248 249 250 249 250 250 251 252 252 252 251 250 251 252 255 257 257 259 262 263 266 269 268 262 259 263 271 277 280 280 280 279 276 268 261 260 261 261 265 268 262 254 249 247 253 260 264 267 273 276 275 272 268 265 263 260 258 256 255 253 250 248
227 227 227 229 230 230 230 230 231 232 234 235 236 238 239 240 242 242 243 244 244 245 245 245 246 245 246 247 247 247 247 247 248 248 248 250 252 253 256 258 258 259 263 267 268 265 261 263 270 274 277 280 281 280 277 276 276 273 272 272 272 273 273 268 263 258 251 251 257 263 269 274 275 274 271 266 262 259 258 257 257 257 255 252 249
225 226 227 228 228 229 229 229 231 232 233 234 235 237 238 239 239 240 240 241 242 242 242 241 241 241 242 243 243 243 243 242 242 244 247 249 250 249 250 253 256 259 261 261 259 257 260 268 274 274 276 277 277 278 278 280 281 279 277 279 281 280 277 273 269 263 255 253 257 262 267 272 274 273 272 267 260 257 257 258 258 257 254 250 248
224 225 226 227 228 228 228 230 231 232 233 234 235 235 236 237 238 238 238 238 239 239 238 237 238 238 239 239 240 241 240 239 239 243 247 248 247 248 251 253 254 253 253 254 255 257 261 267 270 270 273 276 277 278 280 281 282 281 281 284 284 281 278 274 268 261 255 255 258 261 265 270 272 270 270 267 260 259 259 255 255 256 252 247 247
222 223 224 224 227 228 228 230 231 231 232 232 233 233 234 235 236 236 236 236 236 236 235 235 234 234 235 237 239 240 238 238 241 244 246 244 242 246 249 249 247 246 249 256 259 258 258 260 262 264 265 267 269 269 268 270 273 276 280 281 279 276 274 270 264 258 254 254 257 261 263 264 265 263 261 257 252 258 261 254 252 255 253 250 250
222 222 223 225 227 228 227 228 229 229 229 229 230 232 232 233 233 232 232 233 233 232 232 230 230 229 232 235 237 237 236 239 242 242 239 236 238 243 246 247 246 246 252 259 259 255 253 255 260 262 259 256 255 254 253 255 258 263 269 271 269 268 267 265 260 255 251 251 255 259 257 256 256 252 250 251 253 261 266 259 254 256 255 254 255
223 223 225 227 227 225 225 225 226 225 226 227 228 229 230 230 229 228 228 229 228 228 227 226 227 228 230 233 235 237 238 240 241 241 240 241 243 245 248 250 250 252 259 261 255 251 252 258 260 257 252 249 250 249 248 247 249 253 258 262 264 263 258 253 250 248 244 245 253 255 248 249 255 255 256 262 265 264 263 258 254 254 252 254 260
225 226 228 228 225 223 222 222 222 223 224 225 226 226 226 225 224 225 225 225 225 225 226 227 229 231 233 235 236 238 240 240 240 241 243 245 246 248 251 254 256 259 262 258 252 253 257 258 254 247 244 245 245 245 243 242 248 254 258 262 266 265 256 246 245 246 243 245 253 255 250 253 263 267 267 270 270 265 262 258 253 251 246 246 259
227 228 228 225 222 221 220 220 220 222 222 223 223 222 221 221 222 222 223 223 223 225 228 230 233 236 238 240 240 240 241 241 241 241 242 243 245 247 249 251 254 255 254 253 253 254 252 247 242 239 240 240 238 237 237 240 245 249 252 257 258 257 254 248 247 249 248 249 255 258 259 264 271 274 274 275 273 269 266 261 255 251 246 243 251
228 228 226 223 222 220 218 218 219 220 220 220 220 219 218 220 221 222 223 224 225 228 231 234 237 239 240 241 242 240 238 237 235 233 234 235 236 240 243 246 248 248 248 249 250 246 241 242 245 243 240 240 239 236 232 232 231 225 223 229 235 242 246 249 253 255 258 260 262 266 273 277 279 281 284 283 280 276 271 266 263 257 249 249 256
227 227 225 222 222 220 218 218 219 220 219 219 218 218 219 221 223 224 225 226 228 231 233 236 237 238 238 238 240 240 237 232 226 225 227 230 233 237 241 244 246 245 243 241 240 239 240 243 244 242 240 240 236 227 215 211 208 203 204 212 221 230 237 247 257 262 267 271 272 279 287 289 286 286 286 284 284 282 275 273 272 266 258 259 264
227 227 224 222 222 220 219 218 219 219 219 218 218 219 221 223 225 226 227 229 231 233 234 235 235 234 233 232 234 236 234 228 222 223 227 231 234 236 237 239 241 240 238 238 241 246 245 241 238 237 233 228 222 211 198 196 199 203 212 218 222 230 239 254 266 273 278 282 285 290 294 293 289 285 282 281 281 279 277 277 277 273 267 265 265
225 225 223 222 223 221 220 219 218 219 218 217 218 220 223 225 226 227 228 230 232 233 233 232 231 229 226 223 225 228 225 218 218 221 225 229 232 232 233 235 236 238 238 240 243 244 243 239 235 229 220 214 208 200 194 198 205 212 220 226 230 244 265 280 285 286 287 289 291 291 290 289 288 283 278 275 273 275 278 275 272 268 261 259 261
226 225 223 223 224 223 222 219 218 218 216 217 220 223 224 225 226 226 227 227 228 228 228 226 225 224 221 218 220 222 217 213 216 220 221 223 227 229 230 231 234 237 238 236 234 233 231 229 225 218 211 205 201 201 204 208 212 217 224 229 236 259 286 291 289 285 286 290 290 289 288 285 282 276 271 268 270 275 272 265 265 260 245 243 254
228 225 225 226 226 225 222 220 219 217 216 219 223 224 224 224 225 225 225 226 226 225 224 222 221 221 219 218 219 219 216 214 217 221 221 222 226 229 230 231 233 234 232 227 224 220 217 214 210 207 205 201 200 205 212 215 217 220 225 232 247 265 275 280 281 282 288 299 300 297 293 286 282 278 274 273 275 276 270 266 268 258 242 239 247
232 230 230 229 227 226 223 221 220 218 219 224 225 225 225 224 224 224 224 224 225 223 220 219 219 218 217 219 221 220 218 216 217 221 224 226 227 229 230 229 227 225 221 217 214 211 209 204 200 199 201 202 204 209 213 216 220 225 232 245 260 266 266 271 280 288 298 309 312 307 301 295 295 291 284 281 280 278 271 265 264 260 255 255 257
240 237 234 230 227 227 226 223 222 222 223 226 226 225 225 224 222 222 222 221 221 220 219 218 218 218 217 218 220 221 219 218 218 222 225 224 224 226 227 224 220 218 215 213 212 211 209 203 198 197 201 204 208 212 216 219 224 230 239 250 256 256 256 264 276 291 302 308 308 308 307 307 303 295 287 281 276 272 265 257 258 261 264 266 264
246 240 236 231 228 229 229 228 227 226 225 225 225 226 226 224 222 221 219 217 216 217 217 217 218 220 220 219 221 222 221 219 219 222 224 222 223 227 228 226 223 221 219 218 218 216 212 205 199 199 203 208 213 217 219 221 225 230 235 236 238 242 247 255 265 277 286 293 298 298 300 304 303 299 298 293 285 279 274 268 268 267 266 268 269
248 243 241 236 232 231 232 231 231 229 227 226 226 226 226 224 223 220 216 214 214 215 216 216 217 220 222 222 223 224 223 221 219 220 222 224 226 228 228 228 227 225 223 221 219 213 208 205 202 203 207 211 215 217 218 219 221 223 223 222 224 229 235 242 249 258 263 273 285 292 301 313 319 320 321 316 307 297 290 285 283 281 277 276 275
248 245 243 239 236 235 234 233 232 230 229 228 227 226 225 223 221 219 215 212 212 213 215 215 216 219 221 222 223 224 224 222 219 217 218 222 225 225 225 225 224 222 222 221 218 211 206 206 207 207 208 211 214 215 213 214 219 219 215 215 219 226 232 236 242 247 254 267 285 305 319 327 335 338 338 334 325 318 315 311 305 300 296 290 287
246 244 243 240 238 237 235 234 232 229 228 228 227 226 224 222 219 217 215 212 210 212 214 213 213 215 218 221 221 221 221 219 217 216 217 221 223 222 221 221 220 221 222 221 217 212 209 209 211 212 211 210 210 210 210 211 217 218 214 212 217 223 227 230 236 241 250 272 293 320 336 339 342 342 339 339 339 335 335 334 328 324 318 311 308
241 242 243 241 239 237 234 233 231 229 228 226 224 222 220 218 216 215 213 211 210 212 212 211 212 214 216 218 219 218 217 216 215 216 219 221 221 220 220 220 220 220 220 218 216 212 209 209 211 210 209 207 205 208 213 215 216 217 215 214 216 220 221 223 230 238 253 280 299 324 340 340 337 338 337 339 342 342 341 340 339 336 333 327 323
242 243 243 243 241 237 232 230 229 229 228 226 224 222 219 215 214 213 212 211 213 214 213 211 212 214 216 217 217 216 214 213 214 216 216 216 216 216 216 216 217 217 216 214 212 208 206 207 207 204 203 205 205 208 212 214 215 215 213 213 213 214 215 217 225 237 252 273 292 311 322 320 324 334 338 338 341 341 338 338 340 342 339 335 330
243 243 243 243 240 234 230 228 227 225 224 222 222 221 219 216 214 211 209 210 212 214 214 212 211 213 215 216 215 213 211 211 212 214 214 212 210 210 210 210 209 208 207 206 204 202 202 201 200 200 201 202 203 206 209 209 210 209 207 206 206 204 203 207 216 226 235 240 251 265 281 303 327 339 337 335 338 340 336 336 340 342 340 335 332
240 241 241 240 236 233 230 227 225 223 222 220 218 218 217 215 215 215 214 211 210 211 212 213 213 213 213 212 209 207 210 211 213 214 212 208 205 204 204 204 204 203 202 200 197 197 199 197 195 197 200 200 198 199 201 200 199 200 200 197 196 196 195 199 208 218 223 224 224 229 249 307 344 342 330 331 337 338 337 338 341 342 340 336 334
240 240 239 236 234 233 231 228 225 223 221 220 220 222 221 219 219 222 223 220 217 216 217 219 220 219 217 213 207 204 208 213 216 216 213 208 205 203 202 202 201 201 201 200 196 193 191 191 191 192 193 195 193 191 191 191 189 190 191 188 187 190 190 193 202 208 210 209 200 190 187 358 360 343 335 338 341 341 340 343 343 342 339 334 329
240 238 236 233 232 231 229 228 226 224 221 221 222 225 229 228 227 228 229 227 226 225 225 227 227 224 223 222 218 214 216 220 218 215 213 211 210 208 207 206 204 202 201 200 199 195 190 188 191 193 192 191 189 186 185 185 183 181 180 180 182 183 181 184 190 191 188 186 179 170 163 112 37 7 349 341 341 345 346 346 344 338 333 327 319
240 238 234 231 230 228 227 226 226 224 223 223 221 223 227 230 231 232 232 232 232 230 229 230 231 229 227 227 225 224 226 228 224 217 214 212 210 207 207 206 204 204 203 199 195 193 191 189 190 191 191 188 185 182 180 180 181 179 175 173 175 174 172 172 172 167 158 138 112 83 54 46 35 17 359 346 344 346 345 341 337 331 325 318 310
241 241 239 236 233 230 228 226 225 223 222 222 221 220 222 226 230 232 232 233 234 234 231 231 232 232 231 229 227 225 225 227 226 221 215 211 207 202 200 200 202 204 204 200 195 192 191 190 188 186 184 181 178 178 178 178 178 178 175 170 164 160 159 156 145 131 116 89 64 48 39 34 25 13 2 352 340 335 332 331 329 324 317 310 306
242 245 246 243 238 233 228 226 224 222 221 219 219 218 219 220 224 226 225 228 232 235 235 234 232 232 232 230 229 227 225 223 222 219 214 207 200 195 195 199 202 201 198 195 192 188 189 190 187 182 179 176 174 174 175 176 175 173 171 164 153 146 144 142 133 123 113 81 46 39 29 17 5 352 343 333 319 312 311 313 313 310 304 301 303
249 249 248 245 241 236 232 228 226 224 223 222 220 220 221 223 224 222 215 214 220 225 229 230 230 230 229 228 227 226 224 220 215 210 205 200 196 194 193 192 193 195 195 194 190 185 184 185 182 178 175 173 173 172 172 172 172 168 161 154 146 143 143 144 141 142 147 168 325 344 339 329 323 316 313 310 304 299 298 299 299 297 296 297 298
257 255 252 248 244 241 238 234 229 226 225 223 222 222 224 225 225 222 215 211 211 213 216 218 221 223 224 223 221 219 218 215 208 202 199 196 193 189 182 176 176 183 189 190 188 184 182 180 177 175 173 171 171 172 170 167 165 161 155 149 146 147 151 155 162 175 192 215 251 276 288 294 299 301 301 299 295 293 295 296 294 292 292 295 296
261 259 256 252 248 245 242 238 232 228 226 225 224 224 223 223 222 221 218 216 214 211 209 209 210 212 216 217 216 213 210 207 203 199 197 194 189 183 177 172 172 175 178 180 182 181 179 178 175 172 171 170 168 167 166 162 159 157 156 154 155 159 166 176 185 197 212 233 257 275 284 288 293 299 300 297 295 295 296 296 293 290 292 295 296
264 261 259 256 253 249 245 241 236 232 228 225 222 221 220 220 219 216 214 212 209 205 200 196 194 194 199 204 205 202 199 198 197 195 192 188 186 184 181 176 173 172 171 171 173 172 172 174 173 170 168 166 164 163 163 161 160 160 162 164 169 174 179 188 200 213 235 258 273 282 285 285 290 295 294 293 294 295 297 298 295 293 293 295 296
266 263 261 259 256 251 245 241 236 230 225 222 219 216 216 215 213 210 208 207 203 198 192 187 184 182 181 183 185 185 182 179 179 181 181 180 181 183 182 178 174 172 168 166 167 168 167 168 169 168 166 164 165 165 164 164 166 169 171 172 175 180 183 193 210 228 248 264 271 276 280 283 287 289 288 287 289 292 298 301 299 296 297 300 299
266 263 261 259 255 250 243 237 231 225 220 217 215 214 212 210 207 205 204 200 196 192 187 184 184 183 178 174 173 172 169 167 168 170 172 175 179 181 180 177 174 170 167 164 166 167 165 164 166 168 168 168 169 169 170 171 172 174 176 176 177 183 193 206 220 230 238 247 252 256 264 270 272 274 279 286 290 292 295 297 296 296 299 301 298
268 264 261 256 251 246 240 233 228 223 218 215 213 211 209 207 203 201 199 195 191 189 186 184 185 184 178 174 173 171 169 168 170 170 170 172 176 177 177 175 171 167 165 164 165 166 166 166 167 170 170 171 172 172 174 176 175 175 180 184 187 198 211 220 228 233 233 237 242 244 248 254 262 269 275 282 289 291 291 291 292 293 294 294 294
273 267 262 253 244 239 234 229 225 222 218 216 213 210 208 206 203 199 196 193 189 187 186 185 186 184 181 179 178 178 176 173 171 171 172 173 174 173 172 171 169 166 164 164 165 167 168 168 170 171 171 172 175 176 177 179 181 183 189 196 202 213 225 232 238 242 242 242 245 247 247 250 256 259 262 267 275 281 284 287 290 292 293 293 296
273 268 262 252 240 231 226 223 222 220 217 215 212 209 207 204 200 196 194 191 187 183 180 180 181 181 181 181 181 181 180 176 172 171 172 172 170 168 167 166 166 166 166 165 166 169 169 169 170 172 174 175 178 180 181 183 185 186 191 203 214 224 233 240 245 248 248 248 249 250 251 252 253 255 259 265 269 273 279 284 288 291 294 295 297
269 265 259 252 240 231 227 224 220 216 214 212 210 209 206 201 198 195 191 187 184 180 175 173 173 172 173 176 179 178 175 170 167 166 165 163 162 162 161 161 162 162 163 164 166 169 171 170 170 173 175 176 178 179 180 180 183 190 203 222 234 239 245 249 251 251 252 254 256 258 260 262 264 266 269 272 274 279 283 285 287 290 291 291 293
262 258 253 247 240 234 231 226 221 218 216 214 212 209 203 197 193 190 185 182 179 177 173 170 167 164 163 166 170 168 164 161 160 159 157 157 156 155 154 155 155 156 157 159 163 168 171 172 171 170 171 171 171 174 179 187 209 235 243 247 250 252 253 254 255 256 258 260 263 266 269 272 273 275 277 278 278 279 278 276 278 283 284 286 288
250 247 243 237 231 228 226 223 220 217 214 210 206 203 199 194 188 184 181 177 173 170 168 166 163 161 159 160 162 161 157 156 156 155 155 154 153 151 151 152 153 154 156 158 161 166 169 170 168 165 164 165 168 180 210 241 256 260 261 258 255 254 254 253 255 258 261 264 267 270 274 279 282 284 285 281 273 270 271 272 275 277 279 283 286
240 237 233 228 222 217 215 214 212 209 204 200 196 192 190 188 183 179 175 171 166 163 161 159 159 159 157 156 157 156 155 154 154 153 153 153 151 151 152 153 153 154 156 157 159 162 163 163 163 162 162 169 185 215 245 260 264 263 263 259 252 250 250 251 253 256 258 261 265 269 273 279 283 285 284 279 273 273 275 274 274 275 276 278 282
232 229 225 222 216 210 205 202 199 196 193 191 188 183 179 176 173 169 166 163 159 156 154 154 154 154 152 151 152 152 153 153 153 152 152 153 153 153 154 154 153 154 155 155 157 158 159 160 164 168 175 195 219 233 241 249 252 253 255 255 253 250 249 248 252 254 255 257 262 266 270 276 281 283 282 279 276 275 276 276 278 281 283 284 284
226 222 219 215 209 202 196 190 185 183 181 178 175 173 169 165 162 159 156 154 153 151 149 149 149 149 148 148 149 150 151 151 152 152 153 154 153 153 154 154 154 154 154 154 156 158 160 164 172 185 201 215 223 226 229 234 237 239 243 246 243 237 236 239 245 251 254 257 262 266 270 274 280 281 278 270 265 266 271 276 280 284 289 292 291
221 216 211 207 202 196 191 184 178 174 170 166 163 162 160 158 156 154 152 152 150 149 149 149 149 149 149 149 150 152 152 151 152 153 153 153 153 154 154 155 155 155 155 155 157 161 169 178 188 199 208 213 215 217 221 223 225 226 226 224 221 221 229 239 244 247 250 255 258 262 266 271 272 271 268 266 266 267 268 272 277 281 285 289 292
216 210 205 201 196 191 187 180 173 167 164 160 157 156 154 154 153 153 152 151 149 148 149 150 151 151 152 152 153 154 155 155 155 156 155 155 156 157 157 157 157 157 158 160 165 172 182 191 197 203 208 209 211 215 214 211 211 210 206 205 213 223 234 240 238 234 240 248 256 263 271 274 272 268 261 257 261 268 272 276 282 286 287 288 290
207 202 198 193 188 182 177 172 165 163 161 157 155 153 152 152 151 152 152 151 150 150 151 152 153 153 154 154 155 155 156 156 156 157 156 157 158 158 159 160 161 162 166 171 177 185 194 200 204 208 211 211 212 212 206 202 203 204 206 212 221 233 242 240 232 232 242 254 264 273 279 278 276 274 269 262 263 269 273 274 275 276 277 279 282